Torna al catalogo

STARLINK-6232

AttivoComunicazioniVLEO
NORAD 57085·PAYLOAD·🇺🇸 United States

Lanciato Jun 22, 2023 da Vandenberg Space Force Base

Loading…

Prossimi Passaggi (prossime 24 ore)

TLE

AggiornatoSource: CelesTrak SupGP

Epoca: Sep 15, 2026, 02:25 UTC

1 57085C 23088AP  26258.10118056  .00004243  00000+0  15388-3 0  2589
2 57085  43.0029 106.0367 0001583 271.5589  65.3707 15.27536807    15

Traccia STARLINK-6232 in tempo reale con AllMySat

Download on the App Store